Regional Weather Roundup
Issued by NWS

Home | Current Version | Previous Version | Text Only | Print | Product List | Glossary On
Versions: 1 2 3 4 5 6 7 8 9 10 11 12 13 14 15 16 17 18 19 20 21 22 23 24 25 26 27 28 29 30 31 32 33 34 35 36 37 38 39 40 41 42 43 44 45 46 47 48 49 50
000
ASUS46 KSEW 032110
RWRWA

WASHINGTON REGIONAL WEATHER ROUNDUP
NATIONAL WEATHER SERVICE SEATTLE WA
200 PM PDT WED JUN 03 2015

NOTE:"FAIR" INDICATES FEW OR NO CLOUDS BELOW 12,000 FEET WITH NO
SIGNIFICANT WEATHER AND/OR OBSTRUCTIONS TO VISIBILITY.

WAZ505-507>509-032200-
SEATTLE, TACOMA, EVERETT, AND VICINITY

CITY           SKY/WX    TMP DP  RH WIND       PRES   REMARKS
EVERETT        PTSUNNY   60  48  64 VRB5      30.07F
BOEING FIELD   PTSUNNY   66  48  52 VRB3      30.06F
RENTON         CLOUDY    63  50  62 NW5       30.05F
SEATAC AIRPORT PTSUNNY   64  48  56 SW6       30.07F
JBLM-MCCHORD   CLOUDY    64  50  61 VRB3      30.06S
PUYALLUP       CLOUDY    63  52  67 CALM      30.06S
BREMERTON      CLOUDY    57  54  88 N6        30.09S
JBLM-FT LEWIS  CLOUDY    62  50  66 VRB5      30.05F
TACOMA NARROWS CLOUDY    64  49  57 NW6       30.06F
$$

WAZ001-503-506-510-514-515-032200-
NORTH INTERIOR

CITY           SKY/WX    TMP DP  RH WIND       PRES   REMARKS
BELLINGHAM     CLOUDY    60  51  72 S8        30.05F
FRIDAY HARBOR  CLOUDY    63  50  62 S5        30.06F
EASTSOUND      PTSUNNY   59  50  72 CALM      30.04S
PORT ANGELES   CLOUDY    57  49  74 NW9       30.08S
PORT TOWNSEND  CLOUDY    59  55  88 VRB3      30.07F
NAS WHIDBEY    CLOUDY    61  59  93 SW13      30.11F
ARLINGTON      CLOUDY    63  50  63 NE5       30.07F
BURLINGTON     CLOUDY    61  50  67 VRB6      30.07S
$$

WAZ020-022-039-040-504-511-512-032200-
SOUTHWEST INTERIOR

CITY           SKY/WX    TMP DP  RH WIND       PRES   REMARKS
SHELTON        CLOUDY    60  52  74 W9        30.04F
OLYMPIA        CLOUDY    63  49  60 S3        30.06F
CHEHALIS       PTSUNNY   61  55  82 VRB3      30.07S HAZE
KELSO          CLOUDY    64  48  55 NW6       30.09F
VANCOUVER      CLOUDY    64  48  56 W6        30.06S
SCAPPOOSE, OR  CLOUDY    63  51  65 SE6       30.05F
PORTLAND, OR   CLOUDY    65  50  58 W7        30.06F
$$

WAZ021-516-517-032200-
WASHINGTON COAST

CITY           SKY/WX    TMP DP  RH WIND       PRES   REMARKS
FORKS          CLOUDY    62  53  72 W10       30.09S
HOQUIAM        CLOUDY    60  52  74 SW16      30.09S HAZE
ASTORIA, OR    CLOUDY    61  51  70 W10       30.09S
$$

WAZ019-023-024-040-518-519-032200-
CASCADE MOUNTAINS AND COLUMBIA GORGE

CITY           SKY/WX    TMP DP  RH WIND       PRES   REMARKS
TROUTDALE, OR  CLOUDY    63  51  65 CALM      30.05F
THE DALLES, OR MOSUNNY   74  43  32 W18G28    29.97F
$$

WAZ026-027-041>044-520-521-032200-
EAST SLOPES

CITY           SKY/WX    TMP DP  RH WIND       PRES   REMARKS
OMAK           LGT RAIN  62  50  64 SW6       29.94F
WENATCHEE      PTSUNNY   73  39  29 W8        29.91F
ELLENSBURG     PTSUNNY   71  43  36 NW17      29.95F
YAKIMA         PTSUNNY   72  43  35 VRB5      29.94F
$$

WAZ028-034-035-032200-
COLUMBIA BASIN

CITY           SKY/WX    TMP DP  RH WIND       PRES   REMARKS
EPHRATA        CLOUDY    70  43  37 VRB5      29.92F
MOSES LAKE     CLOUDY    71  43  36 W8        29.93F
PASCO          PTSUNNY   74  43  32 SE6       29.93F
HERMISTON, OR  MOSUNNY   74  41  30 W14G24    29.93F
$$

WAZ036>038-032200-
NORTHEAST WASHINGTON

CITY           SKY/WX    TMP DP  RH WIND       PRES   REMARKS
SPOKANE GEIGER PTSUNNY   61  43  51 SW12      29.97F
SPOKANE FELTS  PTSUNNY   65  45  48 SW6       29.97F
FAIRCHILD AFB  CLOUDY    62  44  50 SW10      29.97F
COEURDALENE,ID PTSUNNY   63  45  51 S6        29.97S
DEER PARK      CLOUDY    63  46  54 S6        29.98F
$$

WAZ029>033-032200-
SOUTHEAST WASHINGTON

CITY           SKY/WX    TMP DP  RH WIND       PRES   REMARKS
PULLMAN        CLOUDY    62  45  53 CALM      30.00F
LEWISTON, ID   PTSUNNY   70  48  45 VRB7      29.96F
WALLA WALLA    MOSUNNY   70  43  37 W9G17     29.96F
PENDLETON, OR  MOSUNNY   72  43  35 W16G23    29.95F
$$


USA.gov is the U.S. government's official web portal to all federal, state and local government web resources and services.